Flag for Canada Weather past 2 weeks in Drummondville, Quebec, Canada

Now
65 °F

Mild.


Feels Like: 65 °F
Forecast: 65 / 80 °F
Wind: 1 mph from East

Location: Nicolet

Current Time: Sep 2, 2014 at 1:14:40 AM

Latest Report: Sep 1, 2014 at 10:00 PM


Visibility: N/A

Pressure: 29.88 "Hg

Humidity: 98%

Dew point: 64 °F

Location of DrummondvilleLocation

Historic Weather in Drummondville — Graph

°F

Drummondville temperature yesterday

Maximum temperature yesterday: 76 °F (at 5:00 PM)
Minimum temperature yesterday: 65 °F (at 10:00 PM)
Average temperature yesterday: 71 °F

Past Weeks' High & Low Weather Summary

 TemperatureHumidityPressure
High82 °F (Aug 24, 4:00 PM)100% (Aug 19, 7:00 AM)30.22 "Hg (Aug 19, 7:00 AM)
Low48 °F (Aug 19, 6:00 AM)51% (Aug 23, 4:00 PM)29.82 "Hg (Aug 17, 10:00 PM)
Average66 °F80%29.99 "Hg
* Reported Aug 17 10:00 PM — Sep 1 10:00 PM, Drummondville, Weather by CustomWeather, © 2014

Note: Actual official high and low records may vary slightly from our data, if they occured in-between our weather recording intervals... More about our weather records

Advertising

Drummondville weather history for previous 24 hours

 ConditionsComfort  
Time TempWeatherWind HumidityBarometerVisibility
10:00 PM
Sep 1
65 °FMild.1 mph98%29.88 "HgN/A
9:00 PM66 °FMild.1 mph95%29.87 "HgN/A
8:00 PM67 °FMild.No wind93%29.88 "HgN/A
7:00 PM73 °FMild.3 mph71%29.87 "HgN/A
6:00 PM76 °FMild.2 mph73%29.87 "HgN/A
5:00 PM76 °FMild.6 mph72%29.88 "HgN/A
2:00 PM75 °FMild.6 mph74%29.90 "HgN/A
1:00 PM74 °FMild.7 mph78%29.91 "HgN/A
12:00 PM75 °FMild.8 mph78%29.91 "HgN/A
11:00 AM73 °FMild.8 mph82%29.92 "HgN/A
10:00 AM72 °FMild.9 mph84%29.91 "HgN/A
9:00 AM72 °FMild.7 mph87%29.91 "HgN/A
8:00 AM68 °FMild.6 mph94%29.91 "HgN/A
5:00 AM68 °FMild.7 mph95%29.88 "HgN/A
4:00 AM69 °FMild.5 mph95%29.87 "HgN/A
3:00 AM70 °FMild.3 mph95%29.85 "HgN/A
Weather by CustomWeather, © 2014

See weather overviewHow to use our weather pages